Location: Arbon
(43.0005°N, 0.7472°E)
Time: 11:52:36
(UTC+00:00)

BREEZE-M DEB (TANK) - Pass Details

Date: 22 April 2026
Orbit: 413 x 17782 km, 53.0° (Epoch: 16 May)

Event Time Altitude Azimuth Distance (km) Brightness Sun altitude
Rises 19:51:17 0° 201° (SSW) 2,543 5.6 -11.5°
Reaches altitude 10° 19:52:48 10° 192° (SSW) 1,895 4.9 -11.7°
Maximum altitude 19:56:21 40° 120° (ESE) 1,360 3.8 -12.3°
Drops below altitude 10° 20:06:21 10° 55° (NE) 5,334 7.1 -13.9°
Sets 20:14:26 0° 51° (NE) 8,524 8.2 -15.1°
